TUP9665 UUWW-ULLI

Flight info

Callsign TUP9665
Flight time 1h 0m
Altitude 36000
Route K0813F360 SUNUN M869 RAVKA N50 NUDKO T561 ODATI T875 GENPA
Aircraft B752/M-SDE2E3FGHIJ3J4J7RWXY/LB1

Departure

Time 2026-05-06 19:34
Airport Vnukovo International Airport (UUWW)

Arrival

Time 2026-05-06 20:34
Airport Pulkovo Airport (ULLI)
Time Latitude Longitude Altitude Speed Heading
2026-05-06 18:48 55.60656 37.28171 694 ft 0 kts
2026-05-06 19:17 55.60650 37.28171 693 ft 1 kts
2026-05-06 19:17 55.60630 37.28160 693 ft 3 kts 33°
2026-05-06 19:17 55.60619 37.28135 693 ft 2 kts 79°
2026-05-06 19:17 55.60620 37.28114 693 ft 1 kts 124°
2026-05-06 19:18 55.60633 37.28094 693 ft 2 kts 129°
2026-05-06 19:18 55.60635 37.28068 693 ft 3 kts 98°
2026-05-06 19:18 55.60643 37.28038 693 ft 1 kts 138°
2026-05-06 19:18 55.60645 37.28035 693 ft 0 kts 143°
2026-05-06 19:25 55.60643 37.28037 693 ft 0 kts 144°
2026-05-06 19:25 55.60642 37.28038 693 ft 1 kts 151°
2026-05-06 19:25 55.60595 37.28095 693 ft 14 kts 136°
2026-05-06 19:26 55.60510 37.28075 693 ft 14 kts 243°
2026-05-06 19:26 55.60482 37.28006 693 ft 10 kts 225°
2026-05-06 19:26 55.60420 37.27897 693 ft 13 kts 218°
2026-05-06 19:26 55.60331 37.27851 693 ft 13 kts 187°
2026-05-06 19:27 55.60242 37.27837 693 ft 12 kts 181°
2026-05-06 19:27 55.60158 37.27873 693 ft 12 kts 156°
2026-05-06 19:27 55.60089 37.27840 693 ft 10 kts 225°
2026-05-06 19:27 55.60035 37.27746 693 ft 12 kts 223°
2026-05-06 19:28 55.59945 37.27580 693 ft 23 kts 229°
2026-05-06 19:28 55.59831 37.27364 693 ft 24 kts 226°
2026-05-06 19:28 55.59717 37.27153 693 ft 23 kts 226°
2026-05-06 19:28 55.59607 37.26949 693 ft 22 kts 225°
2026-05-06 19:29 55.59519 37.26728 693 ft 21 kts 244°
2026-05-06 19:29 55.59463 37.26485 693 ft 21 kts 248°
2026-05-06 19:29 55.59410 37.26244 693 ft 20 kts 249°
2026-05-06 19:29 55.59367 37.26055 693 ft 20 kts 248°
2026-05-06 19:30 55.59316 37.25827 693 ft 19 kts 248°
2026-05-06 19:30 55.59267 37.25606 693 ft 19 kts 249°
2026-05-06 19:30 55.59220 37.25391 693 ft 17 kts 245°
2026-05-06 19:30 55.59173 37.25193 693 ft 17 kts 247°
2026-05-06 19:31 55.59132 37.25008 693 ft 15 kts 250°
2026-05-06 19:31 55.59095 37.24838 693 ft 14 kts 249°
2026-05-06 19:31 55.59017 37.24523 693 ft 12 kts 227°
2026-05-06 19:32 55.58943 37.24532 693 ft 11 kts 153°
2026-05-06 19:32 55.58873 37.24594 693 ft 11 kts 153°
2026-05-06 19:32 55.58826 37.24649 693 ft 4 kts 108°
2026-05-06 19:32 55.58830 37.24686 694 ft 0 kts 70°
2026-05-06 19:33 55.58831 37.24694 693 ft 0 kts 70°
2026-05-06 19:33 55.58831 37.24696 693 ft 1 kts 70°
2026-05-06 19:33 55.58897 37.24989 694 ft 61 kts 68°
2026-05-06 19:33 55.59154 37.26138 694 ft 136 kts 68°
2026-05-06 19:34 55.59566 37.27965 1030 ft 172 kts 66°
2026-05-06 19:34 55.59998 37.29849 2069 ft 169 kts 66°
2026-05-06 19:34 55.60415 37.31733 2900 ft 172 kts 68°
2026-05-06 19:34 55.60834 37.33691 3689 ft 170 kts 67°
2026-05-06 19:35 55.61285 37.35681 4171 ft 189 kts 66°
2026-05-06 19:35 55.61779 37.37948 4661 ft 208 kts 74°
2026-05-06 19:35 55.61763 37.40585 5120 ft 229 kts 110°
2026-05-06 19:35 55.60855 37.42978 5641 ft 244 kts 138°
2026-05-06 19:36 55.59667 37.45025 6586 ft 244 kts 140°
2026-05-06 19:36 55.58180 37.46603 7079 ft 257 kts 170°
2026-05-06 19:36 55.56405 37.46612 7715 ft 261 kts 200°
2026-05-06 19:36 55.54859 37.45031 8489 ft 261 kts 227°
2026-05-06 19:37 55.53601 37.42760 9409 ft 263 kts 227°
2026-05-06 19:37 55.52317 37.40464 10068 ft 275 kts 232°
2026-05-06 19:37 55.51369 37.37371 9950 ft 292 kts 256°
2026-05-06 19:37 55.51144 37.35036 10129 ft 294 kts 268°
2026-05-06 19:38 55.51670 37.30338 11260 ft 297 kts 293°
2026-05-06 19:38 55.52784 37.27255 12082 ft 306 kts 307°
2026-05-06 19:38 55.54145 37.24386 12980 ft 308 kts 307°
2026-05-06 19:38 55.55526 37.21421 13799 ft 313 kts 307°
2026-05-06 19:39 55.56906 37.18465 14702 ft 315 kts 307°
2026-05-06 19:39 55.58292 37.15495 15425 ft 321 kts 308°
2026-05-06 19:39 55.59861 37.12640 16237 ft 326 kts 312°
2026-05-06 19:39 55.61483 37.09748 16726 ft 341 kts 311°
2026-05-06 19:40 55.63179 37.06701 16971 ft 360 kts 311°
2026-05-06 19:40 55.64967 37.03507 17719 ft 365 kts 311°
2026-05-06 19:40 55.66749 37.00315 18364 ft 370 kts 311°
2026-05-06 19:40 55.68559 36.97072 19084 ft 375 kts 311°
2026-05-06 19:41 55.70409 36.93753 19761 ft 379 kts 311°
2026-05-06 19:41 55.72259 36.90430 20422 ft 384 kts 311°
2026-05-06 19:41 55.74135 36.87053 21055 ft 388 kts 311°
2026-05-06 19:41 55.76037 36.83628 21696 ft 392 kts 311°
2026-05-06 19:42 55.77962 36.80157 22291 ft 397 kts 311°
2026-05-06 19:42 55.79911 36.76633 22876 ft 402 kts 311°
2026-05-06 19:42 55.81867 36.73094 23481 ft 405 kts 311°
2026-05-06 19:42 55.83826 36.69544 24011 ft 410 kts 311°
2026-05-06 19:43 55.85832 36.65904 24635 ft 412 kts 311°
2026-05-06 19:43 55.87853 36.62231 25144 ft 417 kts 311°
2026-05-06 19:43 55.89863 36.58570 25735 ft 419 kts 311°
2026-05-06 19:43 55.91913 36.54831 26250 ft 423 kts 311°
2026-05-06 19:44 55.93988 36.51041 26798 ft 426 kts 311°
2026-05-06 19:44 55.96048 36.47270 27258 ft 430 kts 311°
2026-05-06 19:44 55.98141 36.43435 27802 ft 432 kts 311°
2026-05-06 19:44 56.00236 36.39589 28236 ft 436 kts 311°
2026-05-06 19:45 56.02364 36.35741 28699 ft 440 kts 314°
2026-05-06 19:45 56.04768 36.32321 29140 ft 447 kts 321°
2026-05-06 19:45 56.07307 36.29033 29565 ft 450 kts 319°
2026-05-06 19:45 56.09815 36.25722 30034 ft 452 kts 319°
2026-05-06 19:46 56.12338 36.22389 30399 ft 456 kts 319°
2026-05-06 19:46 56.14906 36.18988 30847 ft 458 kts 319°
2026-05-06 19:46 56.17456 36.15605 31263 ft 460 kts 319°
2026-05-06 19:46 56.20012 36.12207 31665 ft 462 kts 319°
2026-05-06 19:47 56.22607 36.08754 32144 ft 462 kts 320°
2026-05-06 19:47 56.25167 36.05342 32733 ft 459 kts 319°
2026-05-06 19:47 56.27709 36.01946 33277 ft 456 kts 320°
2026-05-06 19:47 56.30246 35.98552 33767 ft 455 kts 319°
2026-05-06 19:48 56.32751 35.95196 34307 ft 452 kts 319°
2026-05-06 19:48 56.35266 35.91817 34673 ft 452 kts 319°
2026-05-06 19:48 56.37799 35.88409 35114 ft 449 kts 320°
2026-05-06 19:48 56.40286 35.85059 35461 ft 448 kts 319°
2026-05-06 19:49 56.42796 35.81672 35726 ft 448 kts 319°
2026-05-06 19:49 56.45272 35.78324 35931 ft 445 kts 319°
2026-05-06 19:49 56.50232 35.71601 35931 ft 444 kts 319°
2026-05-06 19:50 56.55135 35.64934 35932 ft 444 kts 319°
2026-05-06 19:50 56.60068 35.58205 35934 ft 444 kts 319°
2026-05-06 19:51 56.64973 35.51491 35934 ft 443 kts 319°
2026-05-06 19:51 56.69881 35.44748 35936 ft 445 kts 319°
2026-05-06 19:52 56.74788 35.37987 35934 ft 444 kts 319°
2026-05-06 19:52 56.79711 35.31180 35942 ft 442 kts 318°
2026-05-06 19:53 56.84597 35.24402 35943 ft 443 kts 318°
2026-05-06 19:53 56.89486 35.17595 35937 ft 442 kts 318°
2026-05-06 19:54 56.94347 35.10806 35941 ft 442 kts 318°
2026-05-06 19:54 56.99210 35.03991 35941 ft 443 kts 318°
2026-05-06 19:55 57.04082 34.97140 35938 ft 442 kts 318°
2026-05-06 19:55 57.08938 34.90289 35938 ft 441 kts 317°
2026-05-06 19:56 57.13794 34.83413 35932 ft 443 kts 317°
2026-05-06 19:56 57.18665 34.76495 35934 ft 442 kts 317°
2026-05-06 19:57 57.23518 34.69577 35934 ft 441 kts 317°
2026-05-06 19:57 57.28349 34.62665 35932 ft 442 kts 317°
2026-05-06 19:58 57.33196 34.55711 35933 ft 442 kts 317°
2026-05-06 19:58 57.38030 34.48748 35926 ft 442 kts 317°
2026-05-06 19:59 57.42871 34.41752 35931 ft 443 kts 317°
2026-05-06 19:59 57.47741 34.34692 35937 ft 441 kts 316°
2026-05-06 20:00 57.52543 34.27702 35947 ft 441 kts 316°
2026-05-06 20:00 57.57334 34.20709 35947 ft 441 kts 316°
2026-05-06 20:01 57.62154 34.13644 35954 ft 441 kts 316°
2026-05-06 20:01 57.66942 34.06607 35967 ft 441 kts 315°
2026-05-06 20:02 57.71748 33.99514 35958 ft 441 kts 315°
2026-05-06 20:02 57.76543 33.92416 35951 ft 440 kts 315°
2026-05-06 20:03 57.81326 33.85311 35957 ft 441 kts 315°
2026-05-06 20:03 57.86112 33.78176 35955 ft 440 kts 315°
2026-05-06 20:04 57.90841 33.71039 35953 ft 439 kts 314°
2026-05-06 20:04 57.95585 33.63836 35959 ft 439 kts 315°
2026-05-06 20:05 58.00310 33.56638 35954 ft 439 kts 314°
2026-05-06 20:05 58.05015 33.49450 35944 ft 430 kts 314°
2026-05-06 20:06 58.07269 33.46007 35842 ft 416 kts 314°
2026-05-06 20:06 58.09510 33.42566 35399 ft 411 kts 314°
2026-05-06 20:06 58.10973 33.40314 35101 ft 409 kts 314°
2026-05-06 20:06 58.13908 33.35791 34383 ft 408 kts 313°
2026-05-06 20:07 58.16076 33.32441 33882 ft 407 kts 312°
2026-05-06 20:07 58.18262 33.29060 33386 ft 410 kts 313°
2026-05-06 20:07 58.20473 33.25635 32844 ft 414 kts 313°
2026-05-06 20:07 58.22714 33.22164 32296 ft 415 kts 313°
2026-05-06 20:08 58.24955 33.18690 31747 ft 414 kts 313°
2026-05-06 20:08 58.27178 33.15233 31209 ft 415 kts 313°
2026-05-06 20:08 58.29397 33.11780 30678 ft 415 kts 313°
2026-05-06 20:08 58.31617 33.08317 30132 ft 418 kts 313°
2026-05-06 20:09 58.33863 33.04807 29604 ft 419 kts 313°
2026-05-06 20:09 58.36093 33.01324 29106 ft 411 kts 313°
2026-05-06 20:09 58.38266 32.97926 28580 ft 404 kts 312°
2026-05-06 20:09 58.40428 32.94529 28067 ft 401 kts 313°
2026-05-06 20:10 58.42567 32.91161 27570 ft 399 kts 313°
2026-05-06 20:10 58.44692 32.87816 27102 ft 397 kts 313°
2026-05-06 20:10 58.46813 32.84468 26548 ft 395 kts 313°
2026-05-06 20:10 58.48896 32.81179 26017 ft 391 kts 313°
2026-05-06 20:11 58.50964 32.77908 25486 ft 385 kts 313°
2026-05-06 20:11 58.53015 32.74659 24992 ft 381 kts 313°
2026-05-06 20:11 58.55034 32.71450 24522 ft 378 kts 313°
2026-05-06 20:11 58.57064 32.68220 24042 ft 377 kts 313°
2026-05-06 20:12 58.59065 32.65034 23574 ft 376 kts 313°
2026-05-06 20:12 58.61055 32.61859 23115 ft 373 kts 313°
2026-05-06 20:12 58.63032 32.58703 22662 ft 369 kts 313°
2026-05-06 20:12 58.64986 32.55578 22203 ft 366 kts 313°
2026-05-06 20:13 58.66915 32.52488 21754 ft 364 kts 313°
2026-05-06 20:13 58.68855 32.49373 21305 ft 362 kts 313°
2026-05-06 20:13 58.70134 32.47318 20996 ft 362 kts 313°
2026-05-06 20:13 58.72712 32.43170 20385 ft 359 kts 313°
2026-05-06 20:14 58.74605 32.40120 19937 ft 356 kts 313°
2026-05-06 20:14 58.76493 32.37072 19496 ft 354 kts 313°
2026-05-06 20:14 58.78369 32.34037 19037 ft 353 kts 312°
2026-05-06 20:14 58.80251 32.30989 18595 ft 353 kts 312°
2026-05-06 20:15 58.82122 32.27958 18156 ft 351 kts 312°
2026-05-06 20:15 58.83973 32.24953 17767 ft 346 kts 312°
2026-05-06 20:15 58.85798 32.21986 17431 ft 344 kts 312°
2026-05-06 20:15 58.87626 32.19005 17099 ft 346 kts 312°
2026-05-06 20:16 58.89470 32.15997 16761 ft 346 kts 312°
2026-05-06 20:16 58.91288 32.13029 16417 ft 342 kts 312°
2026-05-06 20:16 58.93093 32.10077 16074 ft 341 kts 312°
2026-05-06 20:16 58.94913 32.07096 15788 ft 340 kts 312°
2026-05-06 20:17 58.96705 32.04156 15471 ft 340 kts 312°
2026-05-06 20:17 58.98504 32.01200 15153 ft 340 kts 313°
2026-05-06 20:17 59.00290 31.98265 14840 ft 338 kts 312°
2026-05-06 20:17 59.02082 31.95309 14528 ft 336 kts 312°
2026-05-06 20:18 59.03748 31.92233 14207 ft 332 kts 308°
2026-05-06 20:18 59.05380 31.89083 13909 ft 333 kts 308°
2026-05-06 20:18 59.07010 31.85947 13652 ft 329 kts 309°
2026-05-06 20:18 59.08644 31.82795 13386 ft 328 kts 309°
2026-05-06 20:19 59.10241 31.79709 13124 ft 327 kts 309°
2026-05-06 20:19 59.11855 31.76589 12858 ft 324 kts 310°
2026-05-06 20:19 59.13441 31.73518 12577 ft 322 kts 310°
2026-05-06 20:19 59.15020 31.70452 12304 ft 322 kts 310°
2026-05-06 20:20 59.16611 31.67362 12027 ft 320 kts 311°
2026-05-06 20:20 59.18178 31.64316 11748 ft 318 kts 311°
2026-05-06 20:20 59.19730 31.61291 11479 ft 317 kts 311°
2026-05-06 20:20 59.21286 31.58258 11197 ft 314 kts 312°
2026-05-06 20:21 59.22821 31.55259 10920 ft 313 kts 312°
2026-05-06 20:21 59.24362 31.52245 10638 ft 312 kts 313°
2026-05-06 20:21 59.25880 31.49272 10360 ft 310 kts 313°
2026-05-06 20:21 59.27415 31.46262 10077 ft 309 kts 313°
2026-05-06 20:22 59.28909 31.43329 9801 ft 308 kts 313°
2026-05-06 20:22 59.30423 31.40353 9518 ft 308 kts 313°
2026-05-06 20:22 59.31931 31.37383 9235 ft 307 kts 314°
2026-05-06 20:22 59.33425 31.34438 8957 ft 306 kts 313°
2026-05-06 20:23 59.34921 31.31484 8679 ft 306 kts 313°
2026-05-06 20:23 59.36412 31.28536 8393 ft 306 kts 314°
2026-05-06 20:23 59.37911 31.25570 8113 ft 305 kts 314°
2026-05-06 20:23 59.39397 31.22645 7831 ft 304 kts 316°
2026-05-06 20:24 59.40994 31.19868 7547 ft 304 kts 318°
2026-05-06 20:24 59.42574 31.17135 7263 ft 303 kts 318°
2026-05-06 20:24 59.44139 31.14422 6982 ft 302 kts 319°
2026-05-06 20:24 59.45693 31.11727 6695 ft 294 kts 319°
2026-05-06 20:25 59.47212 31.09090 6445 ft 288 kts 319°
2026-05-06 20:25 59.48705 31.06496 6264 ft 288 kts 319°
2026-05-06 20:25 59.50212 31.03872 6086 ft 289 kts 319°
2026-05-06 20:25 59.51694 31.01288 5907 ft 287 kts 319°
2026-05-06 20:26 59.53191 30.98675 5727 ft 287 kts 319°
2026-05-06 20:26 59.54657 30.96112 5533 ft 272 kts 320°
2026-05-06 20:26 59.56024 30.93720 5334 ft 261 kts 320°
2026-05-06 20:26 59.57398 30.91314 5134 ft 264 kts 320°
2026-05-06 20:27 59.58765 30.88920 4930 ft 265 kts 320°
2026-05-06 20:27 59.60139 30.86507 4722 ft 264 kts 320°
2026-05-06 20:27 59.61496 30.84121 4517 ft 262 kts 320°
2026-05-06 20:27 59.62857 30.81726 4307 ft 261 kts 320°
2026-05-06 20:28 59.64206 30.79351 4100 ft 261 kts 320°
2026-05-06 20:28 59.65554 30.76973 3897 ft 260 kts 320°
2026-05-06 20:28 59.66916 30.74570 3686 ft 259 kts 320°
2026-05-06 20:28 59.68256 30.72202 3475 ft 255 kts 321°
2026-05-06 20:29 59.69563 30.69887 3253 ft 249 kts 321°
2026-05-06 20:29 59.70421 30.68369 3112 ft 246 kts 321°
2026-05-06 20:29 59.72087 30.65416 2826 ft 239 kts 321°
2026-05-06 20:29 59.73304 30.63254 2614 ft 234 kts 321°
2026-05-06 20:30 59.74118 30.61808 2510 ft 229 kts 321°
2026-05-06 20:30 59.76086 30.56427 2516 ft 196 kts 290°
2026-05-06 20:30 59.76496 30.53937 2499 ft 184 kts 292°
2026-05-06 20:31 59.76767 30.52338 2392 ft 182 kts 292°
2026-05-06 20:31 59.77256 30.49271 2120 ft 168 kts 290°
2026-05-06 20:31 59.77568 30.47171 1923 ft 151 kts 290°
2026-05-06 20:31 59.77851 30.45274 1673 ft 137 kts 292°
2026-05-06 20:32 59.78118 30.43543 1456 ft 127 kts 291°
2026-05-06 20:32 59.78382 30.41831 1317 ft 132 kts 291°
2026-05-06 20:32 59.78650 30.40076 1132 ft 132 kts 290°
2026-05-06 20:32 59.78862 30.38668 983 ft 131 kts 290°
2026-05-06 20:33 59.79036 30.37520 862 ft 129 kts 290°
2026-05-06 20:33 59.79302 30.35819 693 ft 130 kts 290°
2026-05-06 20:33 59.79631 30.33530 454 ft 130 kts 289°
2026-05-06 20:33 59.79886 30.31836 259 ft 127 kts 287°
2026-05-06 20:34 59.80053 30.30719 146 ft 126 kts 287°
2026-05-06 20:34 59.80372 30.28578 71 ft 98 kts 286°
2026-05-06 20:34 59.80505 30.27689 75 ft 44 kts 286°
2026-05-06 20:34 59.80557 30.27338 77 ft 31 kts 287°
2026-05-06 20:35 59.80603 30.27030 76 ft 22 kts 287°
2026-05-06 20:35 59.80642 30.26725 75 ft 11 kts 263°
2026-05-06 20:35 59.80592 30.26639 76 ft 7 kts 198°
2026-05-06 20:35 59.80546 30.26610 77 ft 6 kts 197°
2026-05-06 20:36 59.80501 30.26582 78 ft 6 kts 197°
2026-05-06 20:36 59.80471 30.26572 78 ft 6 kts 180°
2026-05-06 20:36 59.80420 30.26702 79 ft 15 kts 106°
2026-05-06 20:36 59.80400 30.26841 80 ft 15 kts 106°
2026-05-06 20:37 59.80368 30.27051 79 ft 16 kts 107°
2026-05-06 20:37 59.80322 30.27360 78 ft 17 kts 106°
2026-05-06 20:37 59.80298 30.27521 79 ft 17 kts 106°
2026-05-06 20:37 59.80250 30.27845 76 ft 19 kts 107°
2026-05-06 20:38 59.80224 30.28018 76 ft 19 kts 106°
2026-05-06 20:38 59.80189 30.28253 74 ft 17 kts 106°
2026-05-06 20:38 59.80145 30.28557 75 ft 17 kts 105°
2026-05-06 20:38 59.80111 30.28782 75 ft 15 kts 108°
2026-05-06 20:39 59.80076 30.28997 73 ft 17 kts 106°
2026-05-06 20:39 59.80059 30.29128 73 ft 16 kts 105°
2026-05-06 20:39 59.80048 30.29200 74 ft 1 kts 105°
2026-05-06 20:39 59.80033 30.29304 74 ft 7 kts 105°
2026-05-06 20:40 59.80019 30.29364 74 ft 6 kts 137°
2026-05-06 20:40 59.79965 30.29358 74 ft 6 kts 196°
2026-05-06 20:40 59.79944 30.29345 75 ft 1 kts 196°
2026-05-06 20:40 59.79938 30.29342 75 ft 0 kts 196°